Terminal Aerodrome Forecast
Issued by NWS Wilmington, OH

Current Version | Previous Version | Graphics & Text | Print | Product List | Glossary On
Versions: 1 2 3 4 5 6 7 8 9 10 11 12 13 14 15 16 17
424
FTUS41 KILN 151133
TAFCMH
TAF
KCMH 151133Z 1512/1612 14007KT P6SM OVC200
     FM151700 18010G18KT P6SM OVC080
     FM152000 19010G20KT 3SM -SHRA BR OVC025
     FM152300 21010G18KT 5SM -SHRA BR OVC006
     FM160200 22012KT P6SM OVC006
     FM160600 28011KT P6SM OVC012=

USA.gov is the U.S. government's official web portal to all federal, state and local government web resources and services.